Oak Harbor, WA

6:36 PM PST on February 12, 2016 (GMT -0800)
Whidbey Island Naval Air Station

Weather History for KNUW - September, 2013

Change the Weather History Date:

Tuesday, September 24, 2013

  Actual Average Record
Temperature  
Mean Temperature 55 °F -  
Max Temperature 61 °F 60 °F 69 °F (2015)
Min Temperature 50 °F 44 °F 37 °F (2000)
Degree Days  
Heating Degree Days 10    
Growing Degree Days 5 (Base 50)    
Moisture  
Dew Point 48 °F    
Average Humidity 84    
Maximum Humidity 93    
Minimum Humidity 64    
Precipitation  
Precipitation 0.07 in - - ()
Sea Level Pressure  
Sea Level Pressure 29.91 in    
Wind  
Wind Speed 6 mph (SSE)    
Max Wind Speed 10 mph    
Max Gust Speed -    
Visibility 10 miles    
Events Rain    
Averages and records for this station are not official NWS values.
T = Trace of Precipitation, MM = Missing Value Source: NWS Daily Summary

Daily Weather History Graph

Daily Weather History Graph

Search for Another Location

Airport or City:

Trip Planner

Search our weather history database for the weather conditions in past years. The results will help you decide how hot, cold, wet, or windy it might be!

Date:

Astronomy

Sep. 24, 2013 Rise Set
Actual Time 7:00 AM PDT 7:03 PM PDT
Civil Twilight 6:29 AM PDT 7:34 PM PDT
Nautical Twilight 5:52 AM PDT 8:11 PM PDT
Astronomical Twilight 5:15 AM PDT 8:48 PM PDT
Moon 10:01 PM PDT (9/24) 12:44 PM PDT (9/24)
Length of Visible Light 13h 05m
Length of Day
12h 02m
Waning Gibbous, 72% of the Moon is Illuminated
Sep 24
Waning Gibbous
Sep 26
Last Quarter
Oct 4
New
Oct 11
First Quarter
Oct 18
Full

Hourly Weather History & Observations

Time (PDT) Temp. Dew Point Humidity Pressure Visibility Wind Dir Wind Speed Gust Speed Precip Events Conditions
12:56 AM 51.1 °F 48.0 °F 89% 29.97 in 10.0 mi ESE 5.8 mph - N/A   Mostly Cloudy
1:56 AM 50.0 °F 48.0 °F 93% 29.97 in 10.0 mi ESE 5.8 mph - N/A   Mostly Cloudy
2:56 AM 51.1 °F 48.9 °F 92% 29.97 in 10.0 mi ESE 8.1 mph - N/A   Overcast
3:56 AM 51.1 °F 48.9 °F 92% 29.96 in 10.0 mi ESE 8.1 mph - N/A   Mostly Cloudy
4:56 AM 51.1 °F 46.9 °F 86% 29.95 in 10.0 mi ESE 8.1 mph - N/A   Mostly Cloudy
5:56 AM 51.1 °F 46.9 °F 86% 29.94 in 10.0 mi ESE 8.1 mph - N/A   Mostly Cloudy
6:56 AM 51.1 °F 48.0 °F 89% 29.94 in 10.0 mi ESE 9.2 mph - N/A   Overcast
7:56 AM 52.0 °F 48.0 °F 86% 29.94 in 10.0 mi ESE 6.9 mph - N/A   Overcast
8:56 AM 54.0 °F 48.9 °F 83% 29.94 in 10.0 mi East 6.9 mph - N/A   Overcast
9:56 AM 55.0 °F 48.9 °F 80% 29.93 in 10.0 mi SE 8.1 mph - N/A   Mostly Cloudy
10:56 AM 54.0 °F 50.0 °F 86% 29.93 in 10.0 mi SSE 4.6 mph - 0.00 in Rain Light Rain
11:31 AM 59.0 °F 50.0 °F 72% 29.91 in 10.0 mi SSE 10.4 mph - 0.00 in   Mostly Cloudy
11:56 AM 59.0 °F 50.0 °F 72% 29.91 in 10.0 mi SE 9.2 mph - 0.00 in   Mostly Cloudy
12:56 PM 57.0 °F 48.0 °F 72% 29.90 in 10.0 mi SE 6.9 mph - N/A   Mostly Cloudy
1:56 PM 60.1 °F 48.0 °F 64% 29.88 in 10.0 mi ESE 5.8 mph - N/A   Mostly Cloudy
2:56 PM 55.0 °F 48.0 °F 77% 29.87 in 10.0 mi NW 4.6 mph - N/A   Mostly Cloudy
3:56 PM 55.9 °F 48.0 °F 75% 29.87 in 10.0 mi WNW 5.8 mph - N/A   Mostly Cloudy
4:56 PM 55.9 °F 48.9 °F 77% 29.87 in 10.0 mi West 3.5 mph - N/A   Mostly Cloudy
5:56 PM 53.1 °F 48.0 °F 83% 29.87 in 10.0 mi West 6.9 mph - N/A   Mostly Cloudy
6:56 PM 52.0 °F 48.9 °F 89% 29.87 in 10.0 mi West 8.1 mph - N/A   Overcast
7:56 PM 51.1 °F 48.0 °F 89% 29.88 in 10.0 mi Calm Calm - N/A   Overcast
8:56 PM 50.0 °F 46.9 °F 89% 29.89 in 10.0 mi Calm Calm - N/A   Overcast
9:25 PM 51.8 °F 48.2 °F 88% 29.88 in 10.0 mi WSW 4.6 mph - 0.00 in Rain Light Rain
9:56 PM 51.1 °F 48.0 °F 89% 29.89 in 10.0 mi SW 4.6 mph - 0.00 in Rain Light Rain
10:56 PM 50.0 °F 48.0 °F 93% 29.90 in 6.0 mi SSE 5.8 mph - 0.04 in Rain Light Rain
11:56 PM 50.0 °F 48.0 °F 93% 29.89 in 10.0 mi SW 4.6 mph - 0.03 in Rain Light Rain